Chetumal, Mexico

3:37 PM EST on August 26, 2016 (GMT -0500)
Chetumal International

Weather History for MMCM - February, 2013

Change the Weather History Date:

Wednesday, February 20, 2013

  Actual Average Record
Temperature  
Mean Temperature 78 °F -  
Max Temperature 89 °F 83 °F 89 °F (2013)
Min Temperature 68 °F 71 °F 60 °F (2015)
Cooling Degree Days 14    
Growing Degree Days 28 (Base 50)    
Moisture  
Dew Point 70 °F    
Average Humidity 75    
Maximum Humidity 100    
Minimum Humidity 54    
Precipitation  
Precipitation 0.01 in - - ()
Sea Level Pressure  
Sea Level Pressure 29.96 in    
Wind  
Wind Speed 5 mph ()    
Max Wind Speed 14 mph    
Max Gust Speed -    
Visibility 5.8 miles    
Events Fog , Rain    
Averages and records for this station are not official NWS values.
T = Trace of Precipitation, MM = Missing Value Source: Averaged Metar Reports

Daily Weather History Graph

Daily Weather History Graph

Search for Another Location

Airport or City:

Trip Planner

Search our weather history database for the weather conditions in past years. The results will help you decide how hot, cold, wet, or windy it might be!

Date:

Astronomy

Feb. 20, 2013 Rise Set
Actual Time 6:17 AM CST 5:56 PM CST
Civil Twilight 5:55 AM CST 6:18 PM CST
Nautical Twilight 5:30 AM CST 6:43 PM CST
Astronomical Twilight 5:04 AM CST 7:09 PM CST
Moon 1:40 PM CST (2/20) 2:13 AM CST (2/20)
Length of Visible Light 12h 22m
Length of Day
11h 38m
Waxing Gibbous, 76% of the Moon is Illuminated
Feb 20
Waxing Gibbous
Feb 25
Full
Mar 4
Last Quarter
Mar 11
New
Mar 19
First Quarter

Hourly Weather History & Observations

Time (CST) Temp. Heat Index Dew Point Humidity Pressure Visibility Wind Dir Wind Speed Gust Speed Precip Events Conditions
2:45 AM 70 °F - 69 °F 97% 29.94 in 5 mi NNW 2.2 mph - -   Scattered Clouds
5:45 AM 70 °F - 70 °F 100% 29.98 in 5 mi NNW 2.2 mph - -   Partly Cloudy
6:10 AM 69.8 °F - 62.6 °F 78% 29.97 in 0.5 mi Calm Calm - N/A   Unknown
6:45 AM 69.8 °F - 62.6 °F 78% 29.99 in 0.5 mi Calm Calm - N/A Fog Fog
7:28 AM 71.6 °F - 62.6 °F 73% 30.00 in 4.0 mi North 6.9 mph - N/A   Haze
7:50 AM 73.4 °F - 64.4 °F 73% 30.00 in 7.0 mi North 6.9 mph - N/A   Mostly Cloudy
8:40 AM 75.2 °F - 64.4 °F 69% 30.02 in 7.0 mi North 6.9 mph - N/A   Mostly Cloudy
8:50 AM 78 °F - 75 °F 86% 30.03 in 6 mi East 4.5 mph - -   Scattered Clouds
9:40 AM 78.8 °F - 68.0 °F 69% 30.02 in 7.0 mi NNE 6.9 mph - N/A   Mostly Cloudy
10:40 AM 78.8 °F - 68.0 °F 69% 30.01 in 7.0 mi ENE 6.9 mph - N/A   Mostly Cloudy
11:40 AM 80.6 °F 83.9 °F 69.8 °F 70% 30.00 in 7.0 mi NNE 11.5 mph - N/A   Mostly Cloudy
11:50 AM 83 °F - 74 °F 66% 30.00 in 6 mi ESE 4.5 mph - - Rain Light Rain Showers
12:40 PM 82.4 °F 88.2 °F 73.4 °F 74% 29.96 in 7.0 mi ENE 6.9 mph - N/A   Scattered Clouds
1:40 PM 84.2 °F 90.9 °F 73.4 °F 70% 29.92 in 7.0 mi ENE 11.5 mph - N/A   Scattered Clouds
2:42 PM 82.4 °F 88.2 °F 73.4 °F 74% 29.91 in 7.0 mi NNE 13.8 mph - N/A   Scattered Clouds
2:50 PM 88 °F - 74 °F 54% 29.92 in 6 mi ESE 6.7 mph - -   Scattered Clouds
3:42 PM 82.4 °F 88.2 °F 73.4 °F 74% 29.89 in 7.0 mi ESE 11.5 mph - N/A   Scattered Clouds
4:43 PM 82.4 °F 88.2 °F 73.4 °F 74% 29.89 in 7.0 mi ESE 13.8 mph - N/A   Scattered Clouds
5:43 PM 80.6 °F 84.6 °F 71.6 °F 74% 29.92 in 7.0 mi ESE 11.5 mph - N/A   Scattered Clouds
5:50 PM 81 °F - 73 °F 70% 29.93 in 6 mi ESE 6.7 mph - -   Scattered Clouds
6:55 PM 78.8 °F - 64.4 °F 61% 29.93 in 7.0 mi East 5.8 mph - N/A   Scattered Clouds
8:50 PM 78 °F - 73 °F 82% 29.96 in 5 mi East 4.5 mph - -   Scattered Clouds
11:50 PM 78 °F - 73 °F 82% 29.94 in 5 mi East 4.5 mph - -   Mostly Cloudy